Hourly Data Report for February 15, 2022

RANKIN INLET A
NUNAVUT
Current Station Operator: NAVCAN

62°48'38.000" N
92°06'53.000" W
32.30 m
2303405
71083
YRT

Download Data

Hourly Data (February 2022)
Hourly Data Report for February 15, 2022
TIME
LST
Temp Definition
°C
Dew Point Definition
°C
Rel Hum Definition
%
Precip. Amount Definition
mm

Wind Dir Definition
10's deg

Wind Spd Definition
km/h
Visibility Definition
km
Stn Press Definition
kPa
Hmdx Definition


Wind Chill Definition


Weather Definition


00:00 -34.1 -38.5 65   31 29 12.9 101.03   -51 Ice Crystals,Blowing Snow
01:00 -34.1 -38.6 65   32 31 9.7 101.02   -51 Ice Crystals,Blowing Snow
02:00 -34.1 -38.6 65   31 32 12.9 101.02   -51 Ice Crystals,Blowing Snow
03:00 -33.9 -38.4 64   31 32 24.1 100.98   -51 Ice Crystals,Blowing Snow
04:00 -33.9 -38.5 64   32 24 24.1 100.98   -49 Ice Crystals,Blowing Snow
05:00 -33.9 -38.4 65   29 17 24.1 100.95   -47 Ice Crystals
06:00 -32.8 -37.3 65   33 21 9.7 100.90   -47 Snow
07:00 -32.7 -37.2 65   30 12 9.7 100.90   -43 Snow
08:00 -32.4 -36.9 66   32 10 16.1 100.89   -42 Snow
09:00 -32.6 -37.0 65   29 13 16.1 100.84   -44 Snow
10:00 -32.2 -36.7 65   29 17 16.1 100.84   -45 Snow
11:00 -31.9 -36.4 65   31 16 16.1 100.79   -44 Snow
12:00 -30.7 -35.4 64   33 23 8.1 100.77   -45 Snow,Blowing Snow
13:00 -30.7 -35.4 64   33 20 6.4 100.74   -44 Snow,Blowing Snow
14:00 -30.5 -35.2 65   33 22 12.9 100.73   -44 Ice Crystals,Blowing Snow
15:00 -31.1 -35.8 64   35 22 12.9 100.74   -45 Ice Crystals,Blowing Snow
16:00 -31.8 -36.4 65   33 22 16.1 100.71   -46 Ice Crystals,Blowing Snow
17:00 -32.6 -37.1 65   34 24 24.1 100.72   -48 Ice Crystals,Blowing Snow
18:00 -33.4 -37.7 66   34 26 16.1 100.71   -49 Ice Crystals,Blowing Snow
19:00 -33.7 -38.1 65   33 28 16.1 100.72   -50 Ice Crystals,Blowing Snow
20:00 -33.7 -38.2 65   35 18 16.1 100.72   -47 Ice Crystals,Blowing Snow
21:00 -34.1 -38.6 65   34 29 19.3 100.71   -51 Ice Crystals,Blowing Snow
22:00 -34.4 -38.8 65   34 30 16.1 100.73   -51 Ice Crystals,Blowing Snow
23:00 -34.7 -39.1 65   34 36 9.7 100.72   -53 Ice Crystals,Blowing Snow

Notes on Data Quality.

Legend

  • E = Estimated
  • M = Missing
  • NA = Not Available*
  • [empty] = Indicates an unobserved value
Date modified: